Terminal Aerodrome Forecast
Issued by NWS

Home | Current Version | Previous Version | Text Only | Print | Product List | Glossary On
Versions: 1 2 3 4 5 6 7 8 9 10 11 12 13 14 15 16 17 18 19 20
000
FTUS46 KSTO 182322
TAFSAC
TAF
KSAC 182322Z 1900/1924 15022G33KT 5SM -RA BR SCT020 OVC050
     FM191000 15012KT 4SM -SHRA OVC015
     FM192000 18008KT P6SM VCSH BKN030=

USA.gov is the U.S. government's official web portal to all federal, state and local government web resources and services.